Location: Bethel Church
(38.0159°N, 88.7292°W)
Time: 03:23:57
(UTC+00:00)

COSMO-SKYMED 1 - Pass Details

Date: 08 December 2021
Orbit: 621 x 623 km, 97.9° (Epoch: 21 January)

Event Time Altitude Azimuth Distance (km) Brightness Sun altitude
Exits shadow 23:27:40 - 25° (NNE) 2,439 5.2 -10.2°
Reaches altitude 10° 23:28:49 10° 30° (NNE) 1,999 4.7 -10.4°
Maximum altitude 23:32:51 37° 98° (E) 976 3.1 -11.2°
Drops below altitude 10° 23:36:51 10° 166° (SSE) 1,984 5.2 -11.9°
Sets 23:39:09 0° 174° (S) 2,885 6.2 -12.3°
